TimeAKST,TemperatureF,Dew PointF,Humidity,Sea Level PressureIn,VisibilityMPH,Wind Direction,Wind SpeedMPH,Gust SpeedMPH,PrecipitationIn,Events,Conditions,WindDirDegrees,DateUTC
12:53 AM,3.9,-0.9,80,29.86,10.0,NE,6.9,-,N/A,,Clear,40,2013-02-19 09:53:00
1:53 AM,6.1,-0.0,76,29.85,10.0,NNE,8.1,-,N/A,,Clear,20,2013-02-19 10:53:00
3:53 AM,7.0,-0.0,73,29.83,10.0,Calm,Calm,-,N/A,,Clear,0,2013-02-19 12:53:00
4:53 AM,5.0,-0.9,76,29.81,10.0,Calm,Calm,-,N/A,,Clear,0,2013-02-19 13:53:00
5:53 AM,8.1,1.9,76,29.80,10.0,NE,3.5,-,N/A,,Scattered Clouds,40,2013-02-19 14:53:00
6:53 AM,10.0,3.0,73,29.78,10.0,NE,9.2,-,N/A,,Overcast,40,2013-02-19 15:53:00
7:53 AM,10.0,3.9,76,29.76,10.0,NE,10.4,-,N/A,,Overcast,50,2013-02-19 16:53:00
8:53 AM,10.0,3.9,76,29.72,10.0,NE,8.1,-,N/A,,Overcast,50,2013-02-19 17:53:00
9:53 AM,10.9,3.9,73,29.70,10.0,NE,10.4,-,N/A,,Overcast,40,2013-02-19 18:53:00
10:53 AM,12.0,3.0,67,29.67,10.0,NNE,17.3,-,N/A,,Overcast,30,2013-02-19 19:53:00
11:53 AM,12.9,3.0,65,29.65,10.0,NE,17.3,-,N/A,,Overcast,40,2013-02-19 20:53:00
12:53 PM,12.9,3.9,67,29.59,10.0,NNE,18.4,-,N/A,,Overcast,30,2013-02-19 21:53:00
1:53 PM,14.0,3.9,64,29.54,10.0,NNE,19.6,-,N/A,,Overcast,30,2013-02-19 22:53:00
3:53 PM,15.1,5.0,64,29.42,9.0,NE,24.2,28.8,N/A,,Overcast,40,2013-02-20 00:53:00
4:53 PM,16.0,6.1,65,29.39,7.0,NE,19.6,29.9,N/A,,Overcast,40,2013-02-20 01:53:00
5:32 PM,15.8,8.6,73,29.36,2.5,NE,17.3,-,0.00,Snow,Light Snow,40,2013-02-20 02:32:00
5:41 PM,15.8,8.6,73,29.35,1.8,NE,20.7,26.5,0.00,Snow,Light Snow,40,2013-02-20 02:41:00
5:53 PM,16.0,10.0,77,29.35,1.0,NNE,23.0,32.2,0.00,Snow,Light Snow,30,2013-02-20 02:53:00
6:00 PM,15.8,10.4,79,29.34,0.8,NNE,20.7,29.9,0.00,Snow,Light Snow,30,2013-02-20 03:00:00
6:53 PM,17.1,14.0,88,29.33,0.8,NNE,23.0,31.1,0.01,Snow,Light Snow,30,2013-02-20 03:53:00
7:33 PM,17.6,15.8,93,29.31,0.8,NNE,20.7,-,0.00,Snow,Light Snow,30,2013-02-20 04:33:00
7:53 PM,18.0,16.0,92,29.31,0.8,NNE,21.9,-,0.00,Snow,Light Snow,30,2013-02-20 04:53:00
8:18 PM,17.6,15.8,93,29.29,0.8,NNE,21.9,29.9,0.00,Snow,Light Snow,30,2013-02-20 05:18:00
8:25 PM,19.4,15.8,86,29.29,1.0,NNE,23.0,-,0.00,Snow,Light Snow,30,2013-02-20 05:25:00
8:53 PM,19.0,16.0,88,29.29,0.8,NNE,21.9,-,0.00,Snow,Light Snow,30,2013-02-20 05:53:00
9:05 PM,19.4,17.6,93,29.28,0.5,NNE,21.9,29.9,0.00,Fog-Snow,Snow,30,2013-02-20 06:05:00
9:33 PM,19.4,17.6,93,29.28,0.5,NE,20.7,29.9,0.00,Fog-Snow,Snow,40,2013-02-20 06:33:00
9:53 PM,19.0,17.1,92,29.28,0.8,NE,18.4,-,0.01,Snow,Light Snow,40,2013-02-20 06:53:00
10:04 PM,19.4,17.6,93,29.26,1.0,NE,21.9,-,0.00,Snow,Light Snow,40,2013-02-20 07:04:00
10:13 PM,19.4,17.6,93,29.26,0.8,NE,23.0,-,0.00,Snow,Light Snow,40,2013-02-20 07:13:00
10:22 PM,19.4,17.6,93,29.25,0.8,NE,23.0,28.8,0.00,Snow,Light Snow,40,2013-02-20 07:22:00
10:26 PM,19.4,17.6,93,29.25,1.0,NE,23.0,28.8,0.00,Snow,Light Snow,40,2013-02-20 07:26:00
10:53 PM,19.9,17.1,89,29.26,1.0,NNE,24.2,32.2,0.00,Snow,Light Snow,30,2013-02-20 07:53:00
10:59 PM,19.4,17.6,93,29.25,0.8,NNE,26.5,36.8,0.00,Snow,Light Snow,30,2013-02-20 07:59:00
11:11 PM,19.4,17.6,93,29.25,1.5,NE,21.9,32.2,0.00,,Overcast,40,2013-02-20 08:11:00
11:25 PM,19.4,17.6,93,29.24,1.5,NE,23.0,-,0.00,,Overcast,40,2013-02-20 08:25:00
11:39 PM,19.4,17.6,93,29.25,2.5,NE,17.3,28.8,0.00,,Overcast,40,2013-02-20 08:39:00
11:49 PM,19.4,17.6,93,29.24,4.0,NE,19.6,-,0.00,,Overcast,40,2013-02-20 08:49:00
11:53 PM,19.0,17.1,92,29.25,3.0,NE,20.7,-,0.00,,Overcast,40,2013-02-20 08:53:00